Location: Montreal
(45.5000°N, 73.5833°W)
Time: 23:36:06
(UTC-04:00)

Tiangong 2 - Pass Details

Date: 14 October 2017
Orbit: 388 x 392 km, 42.8° (Epoch: 19 October)

Event Time Altitude Azimuth Distance (km) Brightness Sun altitude
Exits shadow 06:30:51 10° 263° (W) 1,438 3.3 -7.6°
Reaches altitude 10° 06:30:53 10° 263° (W) 1,421 3.3 -7.6°
Maximum altitude 06:33:59 46° 188° (S) 532 1.7 -7.0°
Drops below altitude 10° 06:37:04 10° 114° (ESE) 1,421 5.4 -6.5°
Sets 06:39:11 0° 108° (ESE) 2,276 7.0 -6.1°
